| time (UTC) | temp C | wind direction | speed KPH | gust KPH | rain 1hr cm | rain 24hr cm | rain mn cm | humidity % | barometer mb |
| 20260904080113 | 11 | 67 | 0.0 | 3.2 | 0.00 | 0.00 | 0.00 | ||
| 20260904073036 | 11 | 57 | 0.0 | 1.6 | 0.00 | 0.00 | 0.00 | ||
| 20260904070109 | 11 | 127 | 0.0 | 0.0 | 0.00 | 0.00 | 0.00 | ||
| 20260904063104 | 11 | 66 | 0.0 | 1.6 | 0.00 | 0.00 | 0.00 | ||
| 20260904053036 | 12 | 66 | 0.0 | 1.6 | 0.00 | 0.00 | 0.00 | ||
| 20260904050108 | 13 | 66 | 0.0 | 3.2 | 0.00 | 0.00 | 0.00 | ||
| 20260904043051 | 13 | 65 | 0.0 | 1.6 | 0.00 | 0.00 | 0.00 | ||
| 20260904040104 | 13 | 65 | 0.0 | 3.2 | 0.00 | 0.00 | 0.00 | ||
| 20260904033054 | 13 | 65 | 0.0 | 3.2 | 0.00 | 0.00 | 0.00 | ||
| 20260904030110 | 14 | 0 | 0.0 | 3.2 | 0.00 | 0.00 | 0.00 | ||
| 20260904023048 | 15 | 66 | 0.0 | 3.2 | 0.00 | 0.00 | 0.00 | ||
| 20260904020059 | 15 | 73 | 1.6 | 6.4 | 0.00 | 0.00 | 0.00 | ||
| 20260904013048 | 16 | 61 | 4.8 | 8.0 | 0.00 | 0.00 | 0.00 | ||
| 20260904010122 | 16 | 73 | 6.4 | 9.7 | 0.00 | 0.00 | 0.00 | ||
| 20260904003044 | 17 | 62 | 6.4 | 9.7 | 0.00 | 0.00 | 0.00 | ||
| 20260904000116 | 17 | 58 | 1.6 | 4.8 | 0.00 | 0.00 | 0.00 | ||
| 20260903233101 | 17 | 53 | 3.2 | 11.3 | 0.00 | 0.00 | 0.00 | ||
| 20260903223059 | 17 | 83 | 1.6 | 9.7 | 0.00 | 0.00 | 0.00 | ||
| 20260903213033 | 16 | 63 | 1.6 | 9.7 | 0.00 | 0.00 | 0.00 | ||
| 20260903210107 | 17 | 98 | 3.2 | 14.5 | 0.00 | 0.00 | 0.00 | ||
| 20260903203046 | 17 | 30 | 4.8 | 11.3 | 0.00 | 0.00 | 0.00 | ||
| 20260903200114 | 16 | 54 | 4.8 | 12.9 | 0.00 | 0.00 | 0.00 | ||
| 20260903193036 | 16 | 264 | 1.6 | 12.9 | 0.00 | 0.00 | 0.00 | ||
| 20260903183041 | 15 | 205 | 3.2 | 8.0 | 0.00 | 0.00 | 0.00 | ||
| 20260903173054 | 14 | 83 | 1.6 | 6.4 | 0.00 | 0.00 | 0.00 | ||
| 20260903170106 | 13 | 64 | 3.2 | 9.7 | 0.00 | 0.00 | 0.00 | ||
| 20260903163038 | 13 | 45 | 3.2 | 8.0 | 0.00 | 0.00 | 0.00 | ||
| 20260903153055 | 12 | 52 | 3.2 | 9.7 | 0.00 | 0.00 | 0.00 | ||
| 20260903143104 | 12 | 58 | 0.0 | 3.2 | 0.00 | 0.00 | 0.00 | ||
| 20260903140113 | 12 | 58 | 0.0 | 1.6 | 0.00 | 0.00 | 0.00 | ||
| 20260903133047 | 12 | 73 | 0.0 | 3.2 | 0.00 | 0.00 | 0.00 | ||
| 20260903130120 | 12 | 63 | 4.8 | 6.4 | 0.00 | 0.00 | 0.00 | ||
| 20260903120122 | 12 | 76 | 3.2 | 4.8 | 0.00 | 0.00 | 0.00 | ||
| 20260903113044 | 12 | 80 | 3.2 | 6.4 | 0.00 | 0.00 | 0.00 | ||
| 20260903110109 | 12 | 101 | 1.6 | 6.4 | 0.00 | 0.00 | 0.00 | ||
| 20260903100107 | 12 | 269 | 0.0 | 3.2 | 0.00 | 0.00 | 0.00 | ||
| 20260903083025 | 13 | 87 | 0.0 | 3.2 | 0.00 | 0.00 | 0.00 |